GW0883 Weather Reports


Display with metric or nautical units.
time (UTC)temp
F
wind
direction
speed
MPH
gust
MPH
rain 1hr
in
rain 24hr
in
rain mn
in
humidity
%
barometer
mb
20260506030328 62 229 2.0 7.0 0.00 0.00 0.00 46 1012.5
20260506025331 63 218 1.0 4.0 0.00 0.00 0.00 45 1012.4
20260506024328 63 211 5.0 11.0 0.00 0.00 0.00 45 1012.3
20260506023329 64 218 3.0 7.0 0.00 0.00 0.00 44 1012.4
20260506022329 64 218 2.0 5.0 0.00 0.00 0.00 43 1012.5
20260506021341 64 230 3.0 6.0 0.00 0.00 0.00 43 1012.4
20260506020429 64 241 2.0 5.0 0.00 0.00 0.00 42 1012.4
20260506015529 65 244 1.0 2.0 0.00 0.00 0.00 42 1012.2
20260506014531 65 216 5.0 10.0 0.00 0.00 0.00 42 1012.1
20260506013629 65 219 3.0 8.0 0.00 0.00 0.00 42 1012.1
20260506012630 66 210 3.0 5.0 0.00 0.00 0.00 42 1011.8
20260506011630 66 219 4.0 11.0 0.00 0.00 0.00 41 1011.7
20260506010630 67 244 4.0 8.0 0.00 0.00 0.00 40 1011.7
20260506005632 67 249 2.0 4.0 0.00 0.00 0.00 40 1011.4
20260506004629 67 212 7.0 9.0 0.00 0.00 0.00 39 1011.4
20260506003630 68 226 3.0 9.0 0.00 0.00 0.00 39 1011.1
20260506002728 69 215 4.0 8.0 0.00 0.00 0.00 39 1011.0
20260506001731 69 214 3.0 6.0 0.00 0.00 0.00 39 1010.9
20260506000730 70 217 4.0 7.0 0.00 0.00 0.00 39 1010.6
20260505235730 70 226 4.0 7.0 0.00 0.00 0.00 39 1010.2
20260505234732 70 238 6.0 10.0 0.00 0.00 0.00 38 1010.0
20260505233729 71 228 4.0 11.0 0.00 0.00 0.00 37 1009.9
20260505232730 71 209 4.0 11.0 0.00 0.00 0.00 38 1009.8
20260505231731 72 208 5.0 10.0 0.00 0.00 0.00 37 1009.7
20260505230730 72 220 3.0 6.0 0.00 0.00 0.00 37 1009.7
20260505224831 73 219 4.0 8.0 0.00 0.00 0.00 37 1009.4
20260505223930 74 226 4.0 9.0 0.00 0.00 0.00 36 1009.1
20260505223029 75 237 4.0 9.0 0.00 0.00 0.00 37 1009.0
20260505222029 76 208 7.0 14.0 0.00 0.00 0.00 37 1008.8
20260505221928 76 232 6.0 11.0 0.00 0.00 0.00 36 1008.8
20260505220930 76 249 7.0 14.0 0.00 0.00 0.00 36 1008.4
20260505215930 77 204 5.0 9.0 0.00 0.00 0.00 36 1008.5
20260505214930 77 237 4.0 12.0 0.00 0.00 0.00 37 1008.8
20260505213930 78 241 5.0 10.0 0.00 0.00 0.00 37 1008.8
20260505213028 78 236 9.0 16.0 0.00 0.00 0.00 37 1008.5
20260505212029 79 221 7.0 12.0 0.00 0.00 0.00 37 1008.2
20260505211030 80 227 6.0 11.0 0.00 0.00 0.00 38 1008.1
20260505210029 80 237 7.0 13.0 0.00 0.00 0.00 38 1007.7
20260505205032 81 223 9.0 16.0 0.00 0.00 0.00 38 1008.0
20260505204028 81 234 6.0 13.0 0.00 0.00 0.00 38 1007.8
20260505203032 81 223 8.0 12.0 0.00 0.00 0.00 39 1007.6
20260505202029 81 242 8.0 17.0 0.00 0.00 0.00 39 1007.8
20260505201030 81 245 2.0 5.0 0.00 0.00 0.00 40 1007.9
20260505195030 81 226 7.0 13.0 0.00 0.00 0.00 41 1008.1
20260505194030 82 245 5.0 9.0 0.00 0.00 0.00 42 1008.0
20260505193029 81 218 9.0 13.0 0.00 0.00 0.00 42 1008.0
20260505185128 81 216 10.0 15.0 0.00 0.00 0.00 45 1008.5
20260505184129 81 226 6.0 10.0 0.00 0.00 0.00 45 1008.7
20260505182230 81 219 6.0 9.0 0.00 0.00 0.00 45 1009.1
20260505181230 81 215 9.0 15.0 0.00 0.00 0.00 47 1009.2
20260505180329 81 220 10.0 16.0 0.00 0.00 0.00 47 1009.4
20260505174329 80 241 9.0 19.0 0.00 0.00 0.00 49 1009.3
20260505173429 79 249 4.0 9.0 0.00 0.00 0.00 50 1009.7
20260505172429 79 216 6.0 13.0 0.00 0.00 0.00 50 1010.0
20260505171429 79 232 6.0 11.0 0.00 0.00 0.00 51 1010.1
20260505170430 79 221 8.0 15.0 0.00 0.00 0.00 52 1010.1
20260505165430 78 225 6.0 13.0 0.00 0.00 0.00 52 1010.3
20260505164429 77 214 3.0 6.0 0.00 0.00 0.00 54 1010.5
20260505163429 76 205 4.0 6.0 0.00 0.00 0.00 54 1010.8
20260505152531 72 200 2.0 4.0 0.00 0.00 0.00 59 1011.9
20260505151530 71 233 1.0 3.0 0.00 0.00 0.00 60 1011.9
20260505150530 72 200 2.0 3.0 0.00 0.00 0.00 60 1011.8
20260505124830 61 224 2.0 3.0 0.00 0.00 0.00 65 1012.4
20260505123829 62 200 2.0 7.0 0.00 0.00 0.00 64 1012.5
20260505122829 61 228 6.0 10.0 0.00 0.00 0.00 64 1012.3
20260505120830 60 216 2.0 4.0 0.00 0.00 0.00 63 1012.5
20260505115928 59 262 4.0 7.0 0.00 0.00 0.00 63 1012.4
20260505114947 58 222 4.0 8.0 0.00 0.00 0.00 63 1012.4
20260505114028 58 208 4.0 7.0 0.00 0.00 0.00 64 1012.5
20260505113029 57 216 2.0 4.0 0.00 0.00 0.00 63 1012.4
20260505112032 56 219 2.0 4.0 0.00 0.00 0.00 63 1012.4
20260505111030 55 218 4.0 8.0 0.00 0.00 0.00 62 1012.3
20260505101230 49 225 0.0 0.0 0.00 0.00 0.00 58 1012.0
20260505100329 49 225 0.0 0.0 0.00 0.00 0.00 58 1012.0
20260505095330 50 225 0.0 0.0 0.00 0.00 0.00 57 1012.0
20260505094332 50 225 1.0 2.0 0.00 0.00 0.00 58 1012.0
20260505093329 50 225 1.0 2.0 0.00 0.00 0.00 57 1012.2
20260505092329 50 225 0.0 1.0 0.00 0.00 0.00 56 1012.1
20260505090331 50 225 0.0 0.0 0.00 0.00 0.00 56 1012.2
20260505085428 50 225 0.0 0.0 0.00 0.00 0.00 54 1012.2
20260505084528 50 215 1.0 3.0 0.00 0.00 0.00 54 1012.2
20260505083529 50 225 0.0 1.0 0.00 0.00 0.00 54 1012.4
20260505081529 50 201 2.0 3.0 0.00 0.00 0.00 52 1012.5
20260505080529 50 225 0.0 2.0 0.00 0.00 0.00 52 1012.5
20260505075544 50 235 1.0 3.0 0.00 0.00 0.00 51 1012.6
20260505074529 50 225 1.0 2.0 0.00 0.00 0.00 51 1012.4
20260505073628 51 225 0.0 1.0 0.00 0.00 0.00 50 1012.6
20260505072632 51 225 2.0 4.0 0.00 0.00 0.00 50 1012.6
20260505071629 51 225 1.0 2.0 0.00 0.00 0.00 49 1012.6
20260505070630 51 220 1.0 3.0 0.00 0.00 0.00 48 1012.7
20260505065648 51 225 0.0 2.0 0.00 0.00 0.00 49 1012.7
20260505064228 51 225 1.0 2.0 0.00 0.00 0.00 47 1012.7
20260505063230 51 202 0.0 1.0 0.00 0.00 0.00 46 1012.7
20260505062230 51 211 2.0 4.0 0.00 0.00 0.00 46 1013.0
20260505061230 51 202 0.0 1.0 0.00 0.00 0.00 45 1012.8
20260505060229 52 225 0.0 0.0 0.00 0.00 0.00 45 1012.8
20260505055228 52 225 1.0 2.0 0.00 0.00 0.00 44 1012.9
20260505054229 53 225 0.0 2.0 0.00 0.00 0.00 45 1012.8
20260505053328 54 226 1.0 3.0 0.00 0.00 0.00 45 1013.0
20260505052330 54 225 2.0 4.0 0.00 0.00 0.00 44 1013.0
20260505051428 54 226 2.0 3.0 0.00 0.00 0.00 44 1013.0
20260505041430 55 222 1.0 3.0 0.00 0.00 0.00 41 1013.0
20260505040429 55 214 1.0 3.0 0.00 0.00 0.00 41 1012.8
20260505035433 56 224 2.0 3.0 0.00 0.00 0.00 39 1012.9
20260505034434 56 228 2.0 4.0 0.00 0.00 0.00 40 1012.8
20260505033532 56 225 1.0 2.0 0.00 0.00 0.00 39 1012.7
20260505032533 57 204 3.0 6.0 0.00 0.00 0.00 39 1012.8
20260505031534 57 207 3.0 5.0 0.00 0.00 0.00 38 1012.7
20260505030632 57 204 1.0 3.0 0.00 0.00 0.00 38 1012.8